THORAD AGENA D DEB, 4640

Orbit data source: Space-Track

THORAD AGENA D DEB, 4640 is space debris in SSO originally from a launch on Wed, 08 Apr 1970 UTC launched from the Air Force Western Test Range (AFWTR). Debris objects in space refer to the collection of defunct objects orbiting the Earth. Examples of debris include non-operational satellites, rocket bodies, and fragments generated from explosions, collisions, or faulty payload assembly.

Loading next visibility...
Identifier
4640, 1970-025Y
Orbit
SSO
Country
Flag of USUS
Related business
Manufacturer
Unknown
Mission
Spacecraft
Bus & Motor
Unknown
Mass
Unknown
Launch date (UTC)
1970-04-08 (56 years ago)
Launch vehicle
Unknown
Launch site
Air Force Western Test Range (AFWTR)
Object type
Payload
Rocket body
Debris
Shape & HBR
Unknown shape, 0.2 m
Radar Cross Section
Small (<0.1 m²)

Expand to show TLE details & history
Last TLE update: 18 hours ago

TLE from 18 hours ago
0 THORAD AGENA D DEB
1 04640U 70025Y   25349.28190412  .00000348  00000-0  70077-3 0  9997
2 04640 100.0245 107.1180 0119369  35.3087 353.7561 13.39044375707475
Epoch: 2025-12-15T06:45Z
TLE epoch observation values (Epoch: 2025-12-15T06:45:56.515Z)
Latitude
28.47687°
Longitude
-84.02384°
Altitude
1,027.33 km
Speed
7.384 km/s
True Right ascension
06h 46m 34s
True Declination
28° 20' 18"
Sunlit
Object was in full shadow at epoch
Visualization orbit readout
Latitude
Unknown
Longitude
Unknown
Altitude
Unknown
Speed
Unknown
Apparent Right ascension
Unknown
Apparent Declination
Unknown
Sunlit
N/A
Visualization observer readout
Local Sidereal Time
23:41:06
Azimuth
Unknown
Elevation
Unknown
Doppler factor
Unknown
Orbital elements
Apogee altitude
1,199.561 km
Perigee altitude
1,020.786 km
Semi-major axis
7,488.31 km
Eccentricity
0.01194
Inclination
100.0245°
RAAN
107.118°
Arg. of periapsis
35.3087°
True anomaly
353.60509°
Mean anomaly
353.7561°
Eccentric anomaly
353.68082°
Mean motion
3.3494 °/min
Orbital period
107.48 mins
BSTAR
0.00070077
Loading maneuver chart data...
Computing Atmospheric mass density...

Documentation

Showing up to 5 results
|